Terminal Aerodrome Forecast
Issued by NWS Wakefield, VA

Home | Current Version | Previous Version | Text Only | Print | Product List | Glossary On
Versions: 1 2 3 4 5 6 7 8 9 10 11 12 13 14 15
000
FTUS41 KAKQ 261100
TAFSBY
TAF
KSBY 261132Z 2612/2712 VRB03KT P6SM SCT070 BKN250
     FM261500 21008KT P6SM SCT050 BKN250
      AMD NOT SKED=

USA.gov is the U.S. government's official web portal to all federal, state and local government web resources and services.